Burnet, TX

6:16 PM CDT on April 24, 2017 (GMT -0500)
Burnet Municipal-Craddock

Weather History for KBMQ - March, 2014

Change the Weather History Date:

Saturday, March 29, 2014

  Actual Average Record
Temperature  
Mean Temperature 62 °F -  
Max Temperature 75 °F 70 °F 82 °F (1997)
Min Temperature 50 °F 50 °F 34 °F (2009)
Degree Days  
Heating Degree Days 2    
Growing Degree Days 12 (Base 50)    
Moisture  
Dew Point 35 °F    
Average Humidity 41    
Maximum Humidity 66    
Minimum Humidity 14    
Precipitation  
Precipitation 0.00 in - - ()
Sea Level Pressure  
Sea Level Pressure 30.19 in    
Wind  
Wind Speed 9 mph (NE)    
Max Wind Speed 12 mph    
Max Gust Speed 21 mph    
Visibility 10 miles    
Events      
Averages and records for this station are not official NWS values.
T = Trace of Precipitation, MM = Missing Value Source: NWS Daily Summary

Daily Weather History Graph

Daily Weather History Graph

Search for Another Location

Airport or City:

Trip Planner

Search our weather history database for the weather conditions in past years. The results will help you decide how hot, cold, wet, or windy it might be!

Date:

Astronomy

Mar. 29, 2014 Rise Set
Actual Time 7:25 AM CDT 7:50 PM CDT
Civil Twilight 7:01 AM CDT 8:14 PM CDT
Nautical Twilight 6:33 AM CDT 8:42 PM CDT
Astronomical Twilight 6:04 AM CDT 9:11 PM CDT
Moon 6:30 AM CDT (3/29) 6:59 PM CDT (3/29)
Length of Visible Light 13h 12m
Length of Day
12h 24m
Waning Crescent, 2% of the Moon is Illuminated
Mar 29
Waning Crescent
Mar 30
New
Apr 7
First Quarter
Apr 15
Full
Apr 22
Last Quarter

Hourly Weather History & Observations

Time (CDT) Temp. Dew Point Humidity Pressure Visibility Wind Dir Wind Speed Gust Speed Precip Events Conditions
12:53 AM 59.0 °F 46.0 °F 62% 30.06 in 10.0 mi NNE 9.2 mph - N/A   Clear
1:53 AM 57.0 °F 43.0 °F 59% 30.08 in 10.0 mi North 10.4 mph 20.7 mph N/A   Clear
2:53 AM 54.0 °F 39.9 °F 59% 30.08 in 10.0 mi North 10.4 mph - N/A   Clear
3:53 AM 53.1 °F 39.0 °F 59% 30.09 in 10.0 mi North 8.1 mph - N/A   Clear
4:53 AM 52.0 °F 39.0 °F 61% 30.10 in 10.0 mi North 10.4 mph - N/A   Clear
5:53 AM 51.1 °F 39.0 °F 63% 30.12 in 10.0 mi North 9.2 mph - N/A   Clear
6:53 AM 50.0 °F 39.0 °F 66% 30.16 in 10.0 mi North 6.9 mph - N/A   Clear
7:53 AM 50.0 °F 39.0 °F 66% 30.20 in 10.0 mi NNW 9.2 mph - N/A   Clear
8:53 AM 55.0 °F 41.0 °F 59% 30.25 in 10.0 mi North 9.2 mph - N/A   Clear
9:53 AM 60.1 °F 42.1 °F 51% 30.26 in 10.0 mi North 10.4 mph - N/A   Clear
10:53 AM 64.9 °F 39.9 °F 40% 30.28 in 10.0 mi NE 11.5 mph 18.4 mph N/A   Clear
11:53 AM 68.0 °F 37.9 °F 33% 30.29 in 10.0 mi Variable 5.8 mph 16.1 mph N/A   Clear
12:53 PM 72.0 °F 35.1 °F 26% 30.27 in 10.0 mi ENE 9.2 mph - N/A   Clear
1:53 PM 73.0 °F 25.0 °F 17% 30.25 in 10.0 mi East 10.4 mph 17.3 mph N/A   Clear
2:53 PM 73.9 °F 21.0 °F 14% 30.24 in 10.0 mi ENE 8.1 mph - N/A   Clear
3:53 PM 75.0 °F 25.0 °F 16% 30.20 in 10.0 mi NE 8.1 mph - N/A   Clear
4:53 PM 75.0 °F 27.0 °F 17% 30.18 in 10.0 mi East 10.4 mph - N/A   Clear
5:53 PM 73.9 °F 24.1 °F 16% 30.18 in 10.0 mi Variable 5.8 mph - N/A   Clear
6:53 PM 72.0 °F 28.0 °F 20% 30.18 in 10.0 mi ENE 9.2 mph - N/A   Clear
7:53 PM 66.9 °F 28.9 °F 24% 30.19 in 10.0 mi East 3.5 mph - N/A   Clear
8:53 PM 62.1 °F 30.0 °F 30% 30.21 in 10.0 mi Calm Calm - N/A   Clear
9:53 PM 60.1 °F 35.1 °F 39% 30.23 in 10.0 mi Calm Calm - N/A   Clear
10:53 PM 59.0 °F 36.0 °F 42% 30.22 in 10.0 mi East 4.6 mph - N/A   Clear
11:53 PM 55.9 °F 36.0 °F 47% 30.21 in 10.0 mi ESE 5.8 mph - N/A   Clear